Lakeville, MN

10:01 AM CST on February 20, 2017 (GMT -0600)
Airlake

Weather History for KLVN - May, 2014

Change the Weather History Date:

Saturday, May 17, 2014

  Actual Average Record
Temperature  
Mean Temperature 50 °F -  
Max Temperature 64 °F 73 °F 92 °F (1987)
Min Temperature 37 °F 48 °F 33 °F (1973)
Degree Days  
Heating Degree Days 14    
Moisture  
Dew Point 30 °F    
Average Humidity 45    
Maximum Humidity 70    
Minimum Humidity 26    
Precipitation  
Precipitation 0.00 in - - ()
Sea Level Pressure  
Sea Level Pressure 30.03 in    
Wind  
Wind Speed 7 mph (West)    
Max Wind Speed 18 mph    
Max Gust Speed 25 mph    
Visibility 10 miles    
Events      
Averages and records for this station are not official NWS values.
T = Trace of Precipitation, MM = Missing Value Source: NWS Daily Summary

Daily Weather History Graph

Daily Weather History Graph

Search for Another Location

Airport or City:

Trip Planner

Search our weather history database for the weather conditions in past years. The results will help you decide how hot, cold, wet, or windy it might be!

Date:

Astronomy

May. 17, 2014 Rise Set
Actual Time 5:42 AM CDT 8:36 PM CDT
Civil Twilight 5:08 AM CDT 9:10 PM CDT
Nautical Twilight 4:25 AM CDT 9:54 PM CDT
Astronomical Twilight 3:34 AM CDT 10:45 PM CDT
Moon 11:36 PM CDT (5/17) 8:26 AM CDT (5/17)
Length of Visible Light 16h 02m
Length of Day
14h 53m
Waning Gibbous, 89% of the Moon is Illuminated
May 17
Waning Gibbous
May 21
Last Quarter
May 28
New
Jun 5
First Quarter
Jun 12
Full

Hourly Weather History & Observations

Time (CDT) Temp. Windchill Dew Point Humidity Pressure Visibility Wind Dir Wind Speed Gust Speed Precip Events Conditions
12:15 AM 41.0 °F 37.1 °F 28.4 °F 61% 30.06 in 10.0 mi WSW 5.8 mph - N/A   Clear
12:34 AM 41.0 °F 37.1 °F 26.6 °F 57% 30.06 in 10.0 mi WSW 5.8 mph - N/A   Clear
12:55 AM 41.0 °F 38.0 °F 28.4 °F 61% 30.06 in 10.0 mi West 4.6 mph - N/A   Clear
1:15 AM 39.2 °F 35.0 °F 28.4 °F 65% 30.06 in 10.0 mi WSW 5.8 mph - N/A   Clear
1:35 AM 39.2 °F 35.9 °F 28.4 °F 65% 30.05 in 10.0 mi WSW 4.6 mph - N/A   Clear
1:55 AM 39.2 °F 35.0 °F 28.4 °F 65% 30.05 in 10.0 mi WSW 5.8 mph - N/A   Clear
2:14 AM 39.2 °F 34.2 °F 28.4 °F 65% 30.05 in 10.0 mi WSW 6.9 mph - N/A   Clear
2:35 AM 39.2 °F 35.0 °F 28.4 °F 65% 30.05 in 10.0 mi WSW 5.8 mph - N/A   Clear
2:55 AM 39.2 °F 34.2 °F 28.4 °F 65% 30.05 in 10.0 mi WSW 6.9 mph - N/A   Clear
3:14 AM 39.2 °F 34.2 °F 28.4 °F 65% 30.05 in 10.0 mi West 6.9 mph - N/A   Clear
3:35 AM 39.2 °F 34.2 °F 28.4 °F 65% 30.05 in 10.0 mi WSW 6.9 mph - N/A   Clear
3:55 AM 39.2 °F 34.2 °F 28.4 °F 65% 30.05 in 10.0 mi WSW 6.9 mph - N/A   Clear
4:15 AM 39.2 °F 34.2 °F 28.4 °F 65% 30.05 in 10.0 mi WSW 6.9 mph - N/A   Scattered Clouds
4:35 AM 37.4 °F 32.8 °F 28.4 °F 70% 30.05 in 10.0 mi WSW 5.8 mph - N/A   Mostly Cloudy
4:54 AM 39.2 °F 34.2 °F 28.4 °F 65% 30.05 in 10.0 mi WSW 6.9 mph - N/A   Overcast
5:15 AM 39.2 °F 35.0 °F 28.4 °F 65% 30.05 in 10.0 mi West 5.8 mph - N/A   Overcast
5:35 AM 39.2 °F 33.6 °F 28.4 °F 65% 30.05 in 10.0 mi WSW 8.1 mph - N/A   Scattered Clouds
5:54 AM 39.2 °F 33.0 °F 28.4 °F 65% 30.05 in 10.0 mi WSW 9.2 mph - N/A   Clear
6:15 AM 37.4 °F 31.4 °F 28.4 °F 70% 30.05 in 10.0 mi WSW 8.1 mph - N/A   Clear
6:34 AM 39.2 °F 34.2 °F 28.4 °F 65% 30.06 in 10.0 mi WSW 6.9 mph - N/A   Clear
6:55 AM 42.8 °F 37.0 °F 28.4 °F 57% 30.06 in 10.0 mi West 10.4 mph - N/A   Clear
7:15 AM 44.6 °F 40.2 °F 28.4 °F 53% 30.06 in 10.0 mi WSW 8.1 mph - N/A   Clear
7:55 AM 48.2 °F - 30.2 °F 50% 30.06 in 10.0 mi WSW 10.4 mph - N/A   Clear
8:14 AM 48.2 °F - 30.2 °F 50% 30.06 in 10.0 mi WSW 9.2 mph - N/A   Clear
8:35 AM 51.8 °F - 30.2 °F 44% 30.06 in 10.0 mi WSW 6.9 mph - N/A   Clear
8:55 AM 53.6 °F - 30.2 °F 41% 30.05 in 10.0 mi West 12.7 mph 16.1 mph N/A   Clear
9:15 AM 53.6 °F - 30.2 °F 41% 30.06 in 10.0 mi West 11.5 mph 17.3 mph N/A   Clear
9:35 AM 55.4 °F - 30.2 °F 38% 30.05 in 10.0 mi West 12.7 mph 20.7 mph N/A   Clear
9:54 AM 55.4 °F - 30.2 °F 38% 30.05 in 10.0 mi West 13.8 mph 19.6 mph N/A   Clear
10:15 AM 55.4 °F - 30.2 °F 38% 30.05 in 10.0 mi WSW 9.2 mph 16.1 mph N/A   Clear
10:35 AM 57.2 °F - 30.2 °F 36% 30.05 in 10.0 mi WSW 13.8 mph 19.6 mph N/A   Clear
10:55 AM 57.2 °F - 30.2 °F 36% 30.04 in 10.0 mi WSW 8.1 mph 17.3 mph N/A   Clear
11:15 AM 57.2 °F - 30.2 °F 36% 30.04 in 10.0 mi WSW 11.5 mph - N/A   Clear
11:34 AM 59.0 °F - 30.2 °F 34% 30.04 in 10.0 mi WSW 10.4 mph 18.4 mph N/A   Clear
11:55 AM 60.8 °F - 33.8 °F 36% 30.03 in 10.0 mi West 9.2 mph 17.3 mph N/A   Clear
12:15 PM 60.8 °F - 33.8 °F 36% 30.03 in 10.0 mi WSW 10.4 mph 16.1 mph N/A   Scattered Clouds
12:34 PM 60.8 °F - 33.8 °F 36% 30.02 in 10.0 mi WSW 13.8 mph 21.9 mph N/A   Scattered Clouds
12:55 PM 62.6 °F - 33.8 °F 34% 30.02 in 10.0 mi West 16.1 mph 21.9 mph N/A   Scattered Clouds
1:14 PM 60.8 °F - 33.8 °F 36% 30.01 in 10.0 mi WSW 6.9 mph 17.3 mph N/A   Scattered Clouds
1:35 PM 62.6 °F - 33.8 °F 34% 30.00 in 10.0 mi WNW 8.1 mph 17.3 mph N/A   Scattered Clouds
1:55 PM 60.8 °F - 33.8 °F 36% 30.00 in 10.0 mi West 9.2 mph - N/A   Mostly Cloudy
2:14 PM 62.6 °F - 33.8 °F 34% 29.99 in 10.0 mi WNW 13.8 mph 20.7 mph N/A   Mostly Cloudy
2:35 PM 62.6 °F - 32.0 °F 32% 29.99 in 10.0 mi West 11.5 mph - N/A   Scattered Clouds
2:54 PM 64.4 °F - 32.0 °F 30% 29.99 in 10.0 mi WNW 11.5 mph 25.3 mph N/A   Scattered Clouds
3:15 PM 64.4 °F - 30.2 °F 28% 29.99 in 10.0 mi WNW 18.4 mph - N/A   Scattered Clouds
3:35 PM 64.4 °F - 30.2 °F 28% 29.99 in 10.0 mi WNW 12.7 mph 16.1 mph N/A   Scattered Clouds
3:55 PM 64.4 °F - 30.2 °F 28% 29.99 in 10.0 mi West 9.2 mph 19.6 mph N/A   Scattered Clouds
4:15 PM 64.4 °F - 28.4 °F 26% 29.99 in 10.0 mi NNW 6.9 mph 19.6 mph N/A   Clear
4:55 PM 64.4 °F - 28.4 °F 26% 29.99 in 10.0 mi NW 11.5 mph 16.1 mph N/A   Scattered Clouds
5:15 PM 62.6 °F - 28.4 °F 27% 29.99 in 10.0 mi West 6.9 mph - N/A   Clear
5:34 PM 62.6 °F - 28.4 °F 27% 29.99 in 10.0 mi NW 9.2 mph 17.3 mph N/A   Clear
5:55 PM 62.6 °F - 30.2 °F 30% 29.99 in 10.0 mi West 5.8 mph - N/A   Scattered Clouds
6:14 PM 62.6 °F - 28.4 °F 27% 30.00 in 10.0 mi West 9.2 mph - N/A   Scattered Clouds
6:35 PM 62.6 °F - 30.2 °F 30% 30.00 in 10.0 mi WNW 6.9 mph - N/A   Scattered Clouds
6:55 PM 62.6 °F - 30.2 °F 30% 30.00 in 10.0 mi WSW 6.9 mph - N/A   Scattered Clouds
7:15 PM 62.6 °F - 30.2 °F 30% 30.00 in 10.0 mi West 4.6 mph - N/A   Clear
7:35 PM 60.8 °F - 30.2 °F 31% 30.00 in 10.0 mi Calm Calm - N/A   Clear
7:54 PM 60.8 °F - 28.4 °F 29% 30.00 in 10.0 mi Calm Calm - N/A   Clear
8:15 PM 59.0 °F - 30.2 °F 34% 30.00 in 10.0 mi Calm Calm - N/A   Clear
8:34 PM 57.2 °F - 30.2 °F 36% 30.00 in 10.0 mi SSW 3.5 mph - N/A   Clear
8:55 PM 55.4 °F - 30.2 °F 38% 30.01 in 10.0 mi Calm Calm - N/A   Clear
9:15 PM 53.6 °F - 32.0 °F 44% 30.01 in 10.0 mi Calm Calm - N/A   Clear
9:34 PM 53.6 °F - 32.0 °F 44% 30.01 in 10.0 mi Calm Calm - N/A   Clear
9:55 PM 51.8 °F - 33.8 °F 50% 30.02 in 10.0 mi Calm Calm - N/A   Clear
10:14 PM 51.8 °F - 32.0 °F 47% 30.02 in 10.0 mi Calm Calm - N/A   Clear
10:35 PM 51.8 °F - 30.2 °F 44% 30.02 in 10.0 mi Calm Calm - N/A   Clear
10:55 PM 51.8 °F - 30.2 °F 44% 30.02 in 10.0 mi Calm Calm - N/A   Clear
11:14 PM 51.8 °F - 30.2 °F 44% 30.02 in 10.0 mi Calm Calm - N/A   Clear
11:35 PM 51.8 °F - 30.2 °F 44% 30.03 in 10.0 mi Calm Calm - N/A   Clear
11:54 PM 48.2 °F - 30.2 °F 50% 30.03 in 10.0 mi WSW 3.5 mph - N/A   Clear